Dewpoint
70 71 71 72 71 71 72 69 69 69 71 72 72 71 72 72 70 70 70 70 69 68 69 68 68 69 72 71 70 71 72 72 71 71 70 70 69 69 69 69 69 69 68 68 69 69 69 69 69 69 69 68 68 64 63 64 63 64 63 65 65 63
70 71 71 71 71 72 71 69 69 70 71 71 72 70 68 67 69 68 68 66 66 68 68 68 68 71 68 70 71 72 72 72 72 71 71 70 70 70 69 70 69 69 68 69 68 65 66 69 68 69 69 69 64 63 64 63 63 63 64 64 65 65
71 71 70 70 71 72 72 70 68 69 72 72 70 68 67 67 65 67 66 66 67 66 67 67 66 68 67 69 69 72 72 72 72 71 71 70 70 70 70 69 70 69 69 69 66 63 62 62 62 68 69 64 64 63 64 63 63 63 63 63 63 66
71 71 70 70 70 70 70 70 69 69 69 69 67 67 67 66 66 67 66 66 66 67 66 65 69 68 70 68 69 69 67 70 72 71 70 70 70 70 69 69 69 69 69 68 63 62 62 61 61 61 62 63 63 64 64 63 63 63 63 65 64 67
72 71 70 69 69 69 69 69 68 68 69 68 66 66 66 66 66 67 67 67 66 65 65 65 66 67 67 67 67 67 67 65 66 68 68 68 68 69 69 67 67 68 64 64 63 62 61 61 62 61 61 62 63 63 63 63 63 63 64 65 65 67
69 69 70 69 69 70 70 68 67 67 68 66 67 65 66 66 65 65 67 68 67 66 66 68 67 67 65 65 65 67 66 65 64 67 69 68 68 67 67 67 67 66 65 64 63 62 60 62 62 61 61 61 63 63 63 63 63 64 64 65 66 67
68 69 69 70 70 71 68 67 66 67 68 66 66 65 65 65 65 65 67 69 66 66 66 66 67 66 65 66 66 67 65 65 64 65 67 67 67 68 67 67 66 66 65 63 63 62 60 60 62 62 61 61 62 63 63 63 63 64 65 65 67 67
67 66 66 69 67 66 65 65 66 67 68 68 67 65 65 65 65 65 67 68 67 66 65 65 66 66 65 65 65 66 66 66 65 65 66 67 67 67 67 66 66 66 65 64 63 61 60 59 61 61 61 61 63 63 63 63 64 64 65 65 66 67
65 66 66 67 68 65 65 65 66 66 66 70 66 65 65 65 65 66 66 67 66 64 65 65 66 67 66 64 66 65 65 64 64 65 65 67 67 67 67 65 66 66 64 62 61 61 61 60 61 61 59 60 61 63 63 63 64 64 65 64 65 66
66 66 65 67 67 65 65 65 64 65 64 69 64 64 65 64 65 66 66 65 65 64 64 66 67 68 66 64 66 66 65 63 64 65 66 66 66 66 67 65 65 65 64 62 62 62 61 60 60 59 59 59 59 60 62 63 64 64 65 65 64 65
67 69 66 67 66 65 65 63 63 63 63 64 62 64 64 65 66 65 66 64 64 64 64 66 67 67 67 65 65 65 66 64 65 66 66 65 65 64 64 65 64 64 62 62 62 62 61 61 61 61 62 61 61 61 60 62 63 64 64 65 65 65
65 66 65 65 67 65 66 66 65 65 64 64 66 65 65 66 68 64 66 64 63 64 66 66 66 65 68 66 67 66 66 66 66 66 65 65 64 64 65 66 64 63 63 62 62 62 62 62 62 62 62 62 61 61 61 61 62 64 64 64 64 65
65 65 64 64 64 64 65 65 64 64 65 66 65 65 65 66 65 66 67 66 63 63 67 67 65 66 66 65 67 65 66 66 66 66 66 65 65 64 63 63 63 63 62 62 62 62 63 63 62 62 63 63 62 62 62 61 61 61 64 64 64 65
63 61 61 59 60 60 63 64 64 64 67 65 64 64 65 64 66 65 65 64 64 65 66 66 65 64 66 66 65 65 65 66 65 65 64 63 64 63 62 62 63 63 64 61 61 61 61 62 62 62 63 63 63 62 62 62 61 61 62 64 63 63
61 61 60 60 61 62 63 64 64 66 65 65 65 65 63 62 63 64 65 65 65 65 63 63 63 64 64 65 64 63 63 64 65 64 64 64 64 63 62 62 62 61 61 61 61 62 61 60 60 61 62 62 63 63 62 62 62 62 62 61 61 63
60 59 58 59 59 60 61 63 64 68 65 65 65 64 62 62 62 62 64 63 63 64 63 63 63 63 62 65 64 64 64 65 65 63 63 63 63 62 62 62 62 61 60 60 60 59 59 59 60 61 61 62 61 61 61 62 62 63 62 61 61 61
58 58 58 58 57 57 59 60 61 63 64 63 64 63 63 63 63 63 62 62 62 63 62 63 63 62 62 65 65 64 64 65 64 63 63 63 62 61 61 61 61 61 60 60 59 59 59 61 61 61 62 63 63 62 62 62 62 62 62 61 61 60
59 58 58 57 57 56 56 56 56 60 65 63 63 64 64 63 62 63 63 62 62 62 62 63 63 63 64 65 64 64 64 64 63 63 63 62 62 61 60 60 60 60 61 60 59 59 60 61 63 63 62 63 63 63 63 62 62 62 61 61 60 60
58 58 57 57 58 57 57 54 55 59 60 61 61 61 63 63 63 63 63 62 61 62 63 62 63 64 64 65 64 63 63 63 62 62 62 61 61 61 61 59 60 60 61 60 60 60 60 61 63 63 62 62 62 64 63 63 62 61 61 61 61 61
58 58 57 57 56 54 52 54 56 58 59 59 58 57 56 59 61 62 62 62 60 62 63 63 63 64 65 65 64 63 63 63 62 62 61 60 60 59 60 60 59 60 61 63 62 62 61 62 61 62 61 61 62 62 62 61 61 62 61 60 60 61
57 57 56 54 52 51 48 52 54 57 56 56 55 55 55 55 56 57 61 62 63 63 63 63 62 64 65 66 65 64 63 61 62 62 61 60 60 60 60 60 61 61 61 61 61 61 63 62 60 59 59 59 60 61 62 60 60 60 60 59 59 59
57 56 55 53 52 52 54 52 53 54 55 55 53 51 52 54 55 56 55 55 55 55 59 63 63 62 63 63 63 63 63 62 61 61 61 61 60 62 61 61 61 59 61 61 62 63 62 60 58 59 59 57 56 59 62 60 59 60 60 58 58 58
56 55 55 55 53 52 54 54 53 53 53 53 53 53 53 55 54 52 53 54 54 54 55 56 60 62 62 62 62 62 63 62 62 62 61 60 59 59 59 60 60 60 60 59 59 60 60 60 58 57 56 55 53 52 53 56 58 59 59 58 58 58
54 55 55 56 56 56 56 53 53 54 53 52 53 55 53 53 51 51 52 54 54 53 54 54 55 57 58 61 62 62 61 61 62 61 61 60 59 58 58 58 59 59 58 56 58 60 61 61 60 58 53 54 53 51 49 53 54 56 58 58 58 58
54 54 55 58 55 54 53 52 52 52 53 52 52 52 51 52 53 55 53 53 53 53 54 54 54 55 55 54 58 61 61 61 61 60 60 59 58 58 58 59 59 59 59 58 58 58 60 61 60 60 57 55 52 51 51 53 52 52 56 57 56 58
54 55 57 55 53 51 51 50 49 49 49 50 50 50 49 50 51 51 51 52 53 54 54 54 53 53 55 54 53 56 57 59 60 61 60 59 59 59 59 59 59 58 58 58 57 57 59 62 61 60 60 56 55 52 52 56 52 48 53 56 57 58
54 55 56 53 51 51 50 49 48 48 49 49 49 49 50 52 51 51 52 52 53 54 53 51 51 50 50 51 51 53 54 55 56 56 59 59 58 58 59 61 60 59 58 58 58 56 59 59 59 59 59 59 58 59 56 54 51 50 48 51 54 55
54 55 54 52 50 49 48 48 47 48 50 49 49 51 52 52 53 53 52 52 53 53 51 51 50 49 49 50 49 50 51 52 53 54 56 55 55 55 55 57 58 56 58 58 57 57 56 56 56 56 58 58 57 58 58 57 56 53 50 50 51 53
53 54 54 52 50 48 48 47 47 49 50 51 51 52 53 54 52 52 52 52 50 49 48 49 49 49 49 50 51 48 49 50 51 52 53 51 51 52 52 52 51 52 53 54 57 57 56 54 55 54 56 57 58 57 57 56 56 55 52 50 48 49
51 53 53 53 50 48 48 48 48 50 51 52 52 52 52 51 50 52 51 49 49 48 47 49 50 50 48 48 48 50 50 50 51 51 50 47 48 49 50 50 50 50 50 49 50 48 48 48 49 50 54 55 53 50 47 43 45 48 49 51 51 50
50 52 53 53 51 49 48 47 49 51 52 51 51 51 50 49 51 51 49 49 48 47 49 49 49 49 49 51 51 52 49 49 50 52 49 48 49 50 50 49 49 48 47 47 47 46 47 47 47 46 45 45 45 44 43 42 42 45 44 42 42 43
49 51 53 53 51 50 49 48 50 52 51 51 51 50 49 50 51 49 48 48 48 48 48 48 48 48 49 50 50 49 50 49 50 50 50 50 50 49 49 48 48 48 47 47 47 46 44 44 44 45 45 45 45 46 45 44 44 44 43 43 42 42
48 51 52 52 50 50 50 50 51 51 51 51 50 50 50 51 51 48 48 48 47 47 47 47 47 48 48 49 48 46 46 47 47 49 48 47 47 47 47 47 47 46 46 45 45 45 44 44 43 42 43 44 43 43 44 44 45 45 45 44 42 40
49 51 52 52 51 50 50 51 51 50 50 50 50 50 51 51 50 48 48 47 46 47 47 46 47 47 49 50 48 48 48 49 49 49 48 47 47 48 48 48 48 48 48 48 47 46 45 45 45 44 42 41 41 42 43 45 45 45 44 43 42 41
54 55 54 55 56 55 51 53 50 50 50 50 49 50 51 51 49 49 48 46 46 47 47 48 47 47 52 49 49 49 49 47 47 48 49 50 49 49 50 50 50 50 49 48 47 47 46 45 45 44 43 41 42 43 44 44 44 44 45 44 44 43
55 54 54 54 56 57 57 55 51 50 50 50 50 50 51 51 50 50 48 46 47 47 48 48 48 50 51 49 49 49 49 48 49 49 49 48 48 48 48 48 48 47 48 51 46 45 44 44 45 45 45 42 41 42 44 43 43 43 45 45 45 44
55 53 51 52 54 51 51 53 52 50 50 50 49 48 50 50 50 50 49 48 47 47 49 48 49 51 51 48 48 48 48 48 48 48 48 48 47 47 48 48 46 47 47 48 47 45 46 44 46 45 45 43 40 41 45 46 45 46 47 45 45 44